| time (UTC) | temp C | wind direction | speed KPH | gust KPH | rain 1hr cm | rain 24hr cm | rain mn cm | humidity % | barometer mb |
| 20260506114505 | 18 | 133 | 0.0 | 0.0 | 0.00 | 0.23 | 0.00 | 62 | 1004.6 |
| 20260506113007 | 19 | 146 | 0.0 | 0.0 | 0.00 | 0.23 | 0.00 | 60 | 1004.7 |
| 20260506111502 | 18 | 159 | 0.0 | 0.0 | 0.00 | 0.23 | 0.00 | 65 | 1004.8 |
| 20260506110104 | 18 | 176 | 0.0 | 0.0 | 0.00 | 0.23 | 0.00 | 65 | 1005.0 |
| 20260506104615 | 18 | 189 | 0.0 | 0.0 | 0.00 | 0.23 | 0.00 | 64 | 1005.0 |
| 20260506103053 | 17 | 192 | 0.0 | 9.7 | 0.00 | 0.23 | 0.00 | 69 | 1005.1 |
| 20260506101556 | 17 | 360 | 1.6 | 8.0 | 0.00 | 0.23 | 0.00 | 70 | 1005.2 |
| 20260506100047 | 17 | 360 | 0.0 | 0.0 | 0.00 | 0.23 | 0.00 | 71 | 1005.1 |
| 20260506094554 | 16 | 360 | 0.0 | 0.0 | 0.00 | 0.23 | 0.00 | 71 | 1005.2 |
| 20260506093046 | 16 | 360 | 0.0 | 0.0 | 0.00 | 0.23 | 0.00 | 76 | 1005.2 |
| 20260506091542 | 15 | 360 | 0.0 | 0.0 | 0.00 | 0.23 | 0.00 | 76 | 1005.3 |
| 20260506090038 | 15 | 360 | 0.0 | 0.0 | 0.00 | 0.23 | 0.00 | 78 | 1005.3 |
| 20260506084535 | 15 | 202 | 0.0 | 0.0 | 0.00 | 0.23 | 0.00 | 80 | 1005.2 |
| 20260506083034 | 15 | 203 | 0.0 | 0.0 | 0.00 | 0.23 | 0.00 | 79 | 1005.5 |
| 20260506081532 | 15 | 234 | 0.0 | 0.0 | 0.00 | 0.23 | 0.00 | 80 | 1005.4 |
| 20260506073023 | 13 | 165 | 0.0 | 0.0 | 0.00 | 0.23 | 0.00 | 86 | 1005.1 |
| 20260506071520 | 13 | 166 | 0.0 | 0.0 | 0.00 | 0.23 | 0.00 | 85 | 1005.0 |
| 20260506061552 | 11 | 236 | 0.0 | 0.0 | 0.00 | 0.23 | 0.00 | 80 | 1005.1 |
| 20260506044544 | 8 | 257 | 0.0 | 0.0 | 0.00 | 0.23 | 0.00 | 81 | 1005.6 |
| 20260506043043 | 8 | 284 | 0.0 | 0.0 | 0.00 | 0.23 | 0.00 | 83 | 1005.7 |
| 20260506041555 | 8 | 281 | 0.0 | 0.0 | 0.00 | 0.23 | 0.00 | 84 | 1005.7 |
| 20260506040039 | 8 | 261 | 0.0 | 0.0 | 0.00 | 0.23 | 0.00 | 84 | 1005.5 |
| 20260506034537 | 8 | 233 | 0.0 | 0.0 | 0.00 | 0.23 | 0.00 | 84 | 1005.3 |
| 20260506033034 | 9 | 225 | 0.0 | 0.0 | 0.00 | 0.23 | 0.00 | 84 | 1005.1 |
| 20260506031532 | 9 | 226 | 0.0 | 0.0 | 0.00 | 0.23 | 0.00 | 84 | 1005.2 |
| 20260506030032 | 10 | 225 | 0.0 | 0.0 | 0.00 | 0.23 | 0.00 | 83 | 1005.5 |
| 20260506024527 | 10 | 222 | 0.0 | 0.0 | 0.00 | 0.23 | 0.00 | 82 | 1005.5 |
| 20260506023026 | 10 | 222 | 0.0 | 0.0 | 0.00 | 0.23 | 0.00 | 83 | 1005.6 |
| 20260506021524 | 10 | 221 | 0.0 | 0.0 | 0.00 | 0.23 | 0.00 | 83 | 1005.7 |
| 20260506020025 | 10 | 243 | 0.0 | 0.0 | 0.00 | 0.23 | 0.00 | 83 | 1005.4 |
| 20260506014532 | 10 | 226 | 0.0 | 0.0 | 0.00 | 0.23 | 0.00 | 83 | 1005.3 |
| 20260506013027 | 10 | 225 | 0.0 | 0.0 | 0.00 | 0.23 | 0.00 | 83 | 1005.4 |
| 20260506011619 | 10 | 225 | 0.0 | 0.0 | 0.00 | 0.23 | 0.00 | 83 | 1005.7 |
| 20260506010024 | 10 | 223 | 0.0 | 0.0 | 0.00 | 0.23 | 0.00 | 83 | 1005.7 |
| 20260506004524 | 10 | 222 | 0.0 | 0.0 | 0.00 | 0.23 | 0.00 | 83 | 1005.7 |
| 20260506003014 | 11 | 222 | 0.0 | 0.0 | 0.00 | 0.23 | 0.00 | 84 | 1005.7 |
| 20260506001514 | 11 | 245 | 0.0 | 0.0 | 0.00 | 0.23 | 0.00 | 84 | 1005.7 |
| 20260506000018 | 11 | 244 | 0.0 | 0.0 | 0.00 | 0.23 | 0.00 | 83 | 1006.0 |
| 20260505234515 | 11 | 243 | 0.0 | 0.0 | 0.00 | 0.23 | 0.00 | 83 | 1006.1 |
| 20260505233007 | 11 | 225 | 0.0 | 0.0 | 0.00 | 0.23 | 0.00 | 83 | 1006.1 |
| 20260505231506 | 11 | 223 | 0.0 | 0.0 | 0.00 | 0.23 | 0.00 | 84 | 1006.1 |
| 20260505230004 | 11 | 224 | 0.0 | 0.0 | 0.00 | 0.23 | 0.00 | 83 | 1006.2 |
| 20260505224506 | 11 | 257 | 0.0 | 0.0 | 0.00 | 0.23 | 0.00 | 84 | 1006.3 |
| 20260505223007 | 11 | 244 | 0.0 | 0.0 | 0.00 | 0.23 | 0.00 | 84 | 1006.2 |
| 20260505221502 | 11 | 227 | 0.0 | 0.0 | 0.00 | 0.23 | 0.00 | 84 | 1006.4 |
| 20260505220100 | 11 | 244 | 0.0 | 0.0 | 0.00 | 0.23 | 0.00 | 84 | 1006.2 |
| 20260505214607 | 11 | 227 | 0.0 | 0.0 | 0.00 | 0.23 | 0.23 | 85 | 1006.1 |
| 20260505213100 | 11 | 227 | 0.0 | 0.0 | 0.00 | 0.23 | 0.23 | 85 | 1006.2 |
| 20260505211611 | 11 | 226 | 0.0 | 0.0 | 0.00 | 0.23 | 0.23 | 85 | 1006.0 |
| 20260505210104 | 12 | 225 | 0.0 | 0.0 | 0.00 | 0.23 | 0.23 | 85 | 1006.0 |
| 20260505204553 | 12 | 224 | 0.0 | 0.0 | 0.00 | 0.23 | 0.23 | 85 | 1005.9 |
| 20260505203053 | 12 | 244 | 0.0 | 0.0 | 0.00 | 0.23 | 0.23 | 86 | 1005.8 |
| 20260505201559 | 12 | 227 | 0.0 | 0.0 | 0.00 | 0.23 | 0.23 | 86 | 1005.5 |
| 20260505200050 | 12 | 227 | 0.0 | 0.0 | 0.00 | 0.23 | 0.23 | 86 | 1005.6 |
| 20260505194548 | 12 | 229 | 0.0 | 0.0 | 0.00 | 0.23 | 0.23 | 86 | 1005.6 |
| 20260505193050 | 12 | 226 | 0.0 | 0.0 | 0.00 | 0.23 | 0.23 | 86 | 1005.7 |
| 20260505191552 | 12 | 225 | 0.0 | 0.0 | 0.00 | 0.23 | 0.23 | 86 | 1005.5 |
| 20260505190058 | 12 | 246 | 0.0 | 0.0 | 0.00 | 0.23 | 0.23 | 86 | 1005.4 |
| 20260505184552 | 13 | 244 | 0.0 | 0.0 | 0.00 | 0.23 | 0.23 | 86 | 1005.2 |
| 20260505183049 | 13 | 240 | 0.0 | 0.0 | 0.00 | 0.23 | 0.23 | 86 | 1005.2 |
| 20260505181539 | 13 | 221 | 0.0 | 0.0 | 0.00 | 0.23 | 0.23 | 85 | 1004.8 |
| 20260505180041 | 13 | 213 | 0.0 | 0.0 | 0.00 | 0.23 | 0.23 | 85 | 1004.7 |
| 20260505174540 | 13 | 200 | 0.0 | 0.0 | 0.00 | 0.23 | 0.23 | 85 | 1004.9 |
| 20260505173040 | 13 | 202 | 0.0 | 0.0 | 0.03 | 0.23 | 0.23 | 85 | 1004.8 |
| 20260505171540 | 13 | 227 | 0.0 | 8.0 | 0.10 | 0.23 | 0.23 | 85 | 1004.6 |
| 20260505170035 | 13 | 200 | 3.2 | 11.3 | 0.15 | 0.23 | 0.23 | 86 | 1004.6 |
| 20260505164537 | 13 | 197 | 8.0 | 19.3 | 0.20 | 0.23 | 0.23 | 86 | 1004.6 |
| 20260505163033 | 14 | 247 | 8.0 | 16.1 | 0.20 | 0.20 | 0.20 | 86 | 1004.9 |
| 20260505161532 | 14 | 182 | 4.8 | 17.7 | 0.13 | 0.13 | 0.13 | 86 | 1005.3 |
| 20260505153030 | 16 | 206 | 17.7 | 40.2 | 0.00 | 0.00 | 0.00 | 79 | 1004.8 |
| 20260505151524 | 20 | 360 | 20.9 | 32.2 | 0.00 | 0.00 | 0.00 | 65 | 1004.2 |
| 20260505124514 | 23 | 223 | 0.0 | 0.0 | 0.00 | 0.00 | 0.00 | 44 | 1004.3 |
| 20260505123009 | 23 | 277 | 0.0 | 0.0 | 0.00 | 0.00 | 0.00 | 44 | 1004.4 |
| 20260505121510 | 23 | 283 | 0.0 | 9.7 | 0.00 | 0.00 | 0.00 | 45 | 1004.4 |
| 20260505120005 | 23 | 252 | 6.4 | 12.9 | 0.00 | 0.00 | 0.00 | 43 | 1004.6 |